QPF
0.00 0.00 0.00 0.00 0.00 0.00 0.00 0.00 0.00 0.00 0.00 0.01 0.01 0.01 0.02 0.02 0.01 0.01 0.01 0.00 0.00 0.00 0.00 0.01 0.01 0.00 0.01 0.01 0.02 0.03 0.04 0.05 0.05 0.04 0.03 0.03 0.03 0.04 0.05 0.06 0.08 0.06 0.04 0.02
0.00 0.00 0.00 0.00 0.00 0.00 0.00 0.00 0.00 0.00 0.00 0.00 0.00 0.00 0.00 0.00 0.00 0.00 0.00 0.00 0.00 0.00 0.00 0.00 0.00 0.00 0.00 0.00 0.00 0.00 0.00 0.01 0.01 0.01 0.02 0.02 0.02 0.02 0.01 0.01 0.02 0.01 0.01 0.01
0.00 0.00 0.00 0.00 0.00 0.00 0.00 0.00 0.00 0.00 0.00 0.00 0.00 0.00 0.00 0.00 0.00 0.00 0.00 0.00 0.00 0.00 0.00 0.00 0.00 0.00 0.00 0.00 0.00 0.00 0.00 0.00 0.00 0.00 0.00 0.00 0.00 0.00 0.00 0.00 0.00 0.00 0.00 0.00
0.00 0.00 0.00 0.00 0.00 0.00 0.00 0.00 0.00 0.00 0.00 0.00 0.00 0.00 0.00 0.00 0.00 0.00 0.00 0.00 0.00 0.00 0.00 0.00 0.00 0.00 0.00 0.00 0.00 0.00 0.00 0.00 0.00 0.00 0.00 0.00 0.00 0.00 0.00 0.00 0.00 0.00 0.00 0.00
0.00 0.00 0.00 0.00 0.00 0.00 0.00 0.00 0.00 0.00 0.00 0.00 0.00 0.00 0.00 0.00 0.00 0.00 0.00 0.00 0.00 0.00 0.00 0.00 0.00 0.00 0.00 0.00 0.00 0.00 0.00 0.00 0.00 0.00 0.00 0.00 0.00 0.00 0.00 0.00 0.00 0.00 0.00 0.00
0.00 0.00 0.00 0.00 0.00 0.00 0.00 0.00 0.00 0.00 0.00 0.00 0.00 0.00 0.00 0.00 0.00 0.00 0.00 0.00 0.00 0.00 0.00 0.00 0.00 0.00 0.00 0.00 0.00 0.00 0.00 0.00 0.00 0.00 0.00 0.00 0.00 0.00 0.00 0.00 0.00 0.00 0.00 0.00
0.00 0.00 0.00 0.00 0.00 0.00 0.00 0.00 0.00 0.00 0.00 0.00 0.00 0.00 0.00 0.00 0.00 0.00 0.00 0.00 0.00 0.00 0.00 0.00 0.00 0.00 0.00 0.00 0.00 0.00 0.00 0.00 0.00 0.00 0.00 0.00 0.00 0.00 0.00 0.00 0.00 0.00 0.00 0.00
0.00 0.00 0.00 0.00 0.00 0.00 0.00 0.00 0.00 0.00 0.00 0.00 0.00 0.00 0.00 0.00 0.00 0.00 0.00 0.00 0.00 0.00 0.00 0.00 0.00 0.00 0.00 0.00 0.00 0.00 0.00 0.00 0.00 0.00 0.00 0.00 0.00 0.00 0.00 0.00 0.00 0.00 0.01 0.01
0.00 0.00 0.00 0.00 0.00 0.00 0.00 0.00 0.00 0.00 0.00 0.00 0.00 0.00 0.00 0.00 0.00 0.00 0.00 0.00 0.00 0.00 0.00 0.00 0.00 0.00 0.00 0.00 0.00 0.00 0.00 0.00 0.00 0.00 0.00 0.00 0.00 0.00 0.00 0.00 0.00 0.00 0.01 0.01
0.00 0.00 0.00 0.00 0.00 0.00 0.00 0.00 0.00 0.00 0.00 0.00 0.00 0.00 0.00 0.00 0.00 0.00 0.00 0.00 0.00 0.00 0.00 0.00 0.00 0.00 0.00 0.00 0.00 0.00 0.00 0.00 0.00 0.00 0.00 0.00 0.00 0.00 0.00 0.00 0.00 0.00 0.00 0.00
0.00 0.00 0.00 0.00 0.00 0.00 0.00 0.00 0.00 0.00 0.00 0.00 0.00 0.00 0.00 0.00 0.00 0.00 0.00 0.00 0.00 0.00 0.00 0.00 0.00 0.00 0.00 0.00 0.00 0.00 0.00 0.00 0.00 0.00 0.00 0.00 0.00 0.00 0.00 0.00 0.00 0.00 0.00 0.00
0.00 0.00 0.00 0.00 0.00 0.00 0.00 0.00 0.00 0.00 0.00 0.00 0.00 0.00 0.00 0.00 0.00 0.00 0.00 0.00 0.00 0.00 0.00 0.00 0.00 0.00 0.00 0.00 0.00 0.00 0.00 0.00 0.00 0.00 0.00 0.00 0.00 0.00 0.00 0.00 0.00 0.00 0.00 0.00
0.00 0.00 0.00 0.00 0.00 0.00 0.00 0.00 0.00 0.00 0.00 0.00 0.00 0.00 0.00 0.00 0.00 0.00 0.00 0.00 0.00 0.00 0.00 0.00 0.00 0.00 0.00 0.00 0.00 0.00 0.00 0.00 0.00 0.00 0.00 0.00 0.00 0.00 0.00 0.00 0.00 0.00 0.00 0.00
0.00 0.00 0.00 0.00 0.00 0.00 0.00 0.00 0.00 0.00 0.00 0.00 0.00 0.00 0.00 0.00 0.00 0.00 0.00 0.00 0.00 0.00 0.00 0.00 0.00 0.00 0.00 0.00 0.00 0.00 0.00 0.00 0.00 0.00 0.00 0.00 0.00 0.00 0.00 0.00 0.00 0.00 0.00 0.00
0.00 0.00 0.00 0.00 0.00 0.00 0.00 0.00 0.00 0.00 0.00 0.00 0.00 0.00 0.00 0.00 0.00 0.00 0.00 0.00 0.00 0.00 0.00 0.00 0.00 0.00 0.00 0.00 0.00 0.00 0.00 0.00 0.00 0.00 0.00 0.00 0.00 0.00 0.00 0.00 0.00 0.00 0.00 0.00
0.00 0.00 0.00 0.00 0.00 0.00 0.00 0.00 0.00 0.00 0.00 0.00 0.00 0.00 0.00 0.00 0.00 0.00 0.00 0.00 0.00 0.00 0.00 0.00 0.00 0.00 0.00 0.00 0.00 0.00 0.00 0.00 0.00 0.00 0.00 0.00 0.00 0.00 0.00 0.00 0.00 0.00 0.00 0.00
0.00 0.00 0.00 0.00 0.00 0.00 0.00 0.00 0.00 0.00 0.00 0.00 0.00 0.00 0.00 0.00 0.00 0.00 0.00 0.00 0.00 0.00 0.00 0.00 0.00 0.00 0.00 0.00 0.00 0.00 0.00 0.00 0.00 0.00 0.00 0.00 0.00 0.00 0.00 0.00 0.00 0.00 0.00 0.00
0.00 0.00 0.00 0.00 0.00 0.00 0.00 0.00 0.00 0.00 0.00 0.00 0.00 0.00 0.00 0.00 0.00 0.00 0.00 0.00 0.00 0.00 0.00 0.00 0.00 0.00 0.00 0.00 0.00 0.00 0.00 0.00 0.00 0.00 0.00 0.00 0.00 0.00 0.00 0.00 0.00 0.00 0.00 0.00
0.00 0.00 0.00 0.00 0.00 0.00 0.00 0.00 0.00 0.00 0.00 0.00 0.00 0.00 0.00 0.00 0.00 0.00 0.00 0.00 0.00 0.00 0.00 0.00 0.00 0.00 0.00 0.00 0.00 0.00 0.00 0.00 0.00 0.00 0.00 0.00 0.00 0.00 0.00 0.00 0.00 0.00 0.00 0.00
0.00 0.00 0.00 0.00 0.00 0.00 0.00 0.00 0.00 0.00 0.00 0.00 0.00 0.00 0.00 0.00 0.00 0.00 0.00 0.00 0.00 0.00 0.00 0.00 0.00 0.00 0.00 0.00 0.00 0.00 0.00 0.00 0.00 0.00 0.00 0.00 0.00 0.00 0.00 0.00 0.00 0.00 0.00 0.00
0.00 0.00 0.00 0.00 0.00 0.00 0.00 0.00 0.00 0.00 0.00 0.00 0.00 0.00 0.00 0.00 0.00 0.00 0.00 0.00 0.00 0.00 0.00 0.00 0.00 0.00 0.00 0.00 0.00 0.00 0.00 0.00 0.00 0.00 0.00 0.00 0.00 0.00 0.00 0.00 0.00 0.00 0.00 0.00
0.00 0.00 0.00 0.00 0.00 0.00 0.00 0.00 0.00 0.00 0.00 0.00 0.00 0.00 0.00 0.00 0.00 0.00 0.00 0.00 0.00 0.00 0.00 0.00 0.00 0.00 0.00 0.00 0.00 0.00 0.00 0.00 0.00 0.00 0.00 0.00 0.00 0.00 0.00 0.00 0.00 0.00 0.00 0.00
0.00 0.00 0.00 0.00 0.00 0.00 0.00 0.00 0.00 0.00 0.00 0.00 0.00 0.00 0.00 0.00 0.00 0.00 0.00 0.00 0.00 0.00 0.00 0.00 0.00 0.00 0.00 0.00 0.00 0.00 0.00 0.00 0.00 0.00 0.00 0.00 0.00 0.00 0.00 0.00 0.00 0.00 0.00 0.00
0.00 0.00 0.00 0.00 0.00 0.00 0.00 0.00 0.00 0.00 0.00 0.00 0.00 0.00 0.00 0.00 0.00 0.00 0.00 0.00 0.00 0.00 0.00 0.00 0.00 0.00 0.00 0.00 0.00 0.00 0.00 0.00 0.00 0.00 0.00 0.00 0.00 0.00 0.00 0.00 0.00 0.00 0.00 0.00
0.00 0.00 0.00 0.00 0.00 0.00 0.00 0.00 0.00 0.00 0.00 0.00 0.00 0.00 0.00 0.00 0.00 0.00 0.00 0.00 0.00 0.00 0.00 0.00 0.00 0.00 0.00 0.00 0.00 0.00 0.00 0.00 0.00 0.00 0.00 0.00 0.00 0.00 0.00 0.00 0.00 0.00 0.00 0.00
0.00 0.00 0.00 0.00 0.00 0.00 0.00 0.00 0.00 0.00 0.00 0.00 0.00 0.00 0.00 0.00 0.00 0.00 0.00 0.00 0.00 0.00 0.00 0.00 0.00 0.00 0.00 0.00 0.00 0.00 0.00 0.00 0.00 0.00 0.00 0.00 0.00 0.00 0.00 0.00 0.00 0.00 0.00 0.00
0.00 0.00 0.00 0.00 0.00 0.00 0.00 0.00 0.00 0.00 0.00 0.00 0.00 0.00 0.00 0.00 0.00 0.00 0.00 0.00 0.00 0.00 0.00 0.00 0.00 0.00 0.00 0.00 0.00 0.00 0.00 0.00 0.00 0.00 0.00 0.00 0.00 0.00 0.00 0.00 0.00 0.00 0.00 0.00
MSLP
1025.11 1025.60 1026.06 1026.48 1026.84 1027.10 1027.24 1027.25 1027.12 1026.84 1026.44 1025.93 1025.34 1024.71 1024.06 1023.41 1022.80 1022.22 1021.68 1021.18 1020.71 1020.26 1019.82 1019.39 1018.97 1018.56 1018.17 1017.79 1017.44 1017.12 1016.82 1016.56 1016.32 1016.09 1015.88 1015.67 1015.47 1015.27 1015.08 1014.90 1014.75 1014.62 1014.52 1014.46
1025.23 1025.64 1026.00 1026.29 1026.50 1026.61 1026.62 1026.52 1026.32 1026.02 1025.65 1025.21 1024.73 1024.22 1023.71 1023.20 1022.71 1022.22 1021.76 1021.31 1020.87 1020.45 1020.04 1019.64 1019.26 1018.90 1018.56 1018.24 1017.94 1017.66 1017.40 1017.15 1016.91 1016.67 1016.45 1016.22 1016.01 1015.80 1015.61 1015.44 1015.29 1015.16 1015.06 1014.98
1025.35 1025.64 1025.86 1026.00 1026.05 1026.02 1025.92 1025.74 1025.50 1025.22 1024.90 1024.56 1024.19 1023.82 1023.44 1023.04 1022.64 1022.23 1021.81 1021.39 1020.97 1020.56 1020.17 1019.81 1019.47 1019.16 1018.88 1018.63 1018.39 1018.16 1017.94 1017.71 1017.48 1017.25 1017.02 1016.80 1016.58 1016.38 1016.20 1016.04 1015.90 1015.78 1015.67 1015.57
1025.44 1025.59 1025.65 1025.63 1025.54 1025.39 1025.20 1024.97 1024.73 1024.49 1024.24 1024.00 1023.75 1023.50 1023.23 1022.94 1022.61 1022.25 1021.85 1021.44 1021.03 1020.62 1020.24 1019.90 1019.60 1019.35 1019.13 1018.94 1018.76 1018.58 1018.40 1018.21 1018.01 1017.79 1017.58 1017.37 1017.17 1016.98 1016.82 1016.68 1016.55 1016.44 1016.32 1016.20
1025.43 1025.42 1025.33 1025.18 1024.97 1024.72 1024.47 1024.23 1024.01 1023.82 1023.66 1023.52 1023.39 1023.25 1023.08 1022.86 1022.59 1022.26 1021.88 1021.47 1021.05 1020.65 1020.27 1019.94 1019.67 1019.46 1019.29 1019.15 1019.03 1018.91 1018.77 1018.62 1018.45 1018.27 1018.08 1017.90 1017.73 1017.58 1017.45 1017.33 1017.22 1017.11 1016.98 1016.84
1025.24 1025.10 1024.88 1024.61 1024.31 1024.01 1023.73 1023.50 1023.32 1023.19 1023.12 1023.09 1023.06 1023.02 1022.93 1022.78 1022.55 1022.25 1021.88 1021.47 1021.05 1020.64 1020.27 1019.95 1019.70 1019.51 1019.37 1019.28 1019.20 1019.12 1019.03 1018.92 1018.80 1018.66 1018.51 1018.38 1018.25 1018.14 1018.05 1017.96 1017.86 1017.75 1017.61 1017.44
1024.81 1024.56 1024.25 1023.91 1023.56 1023.24 1022.97 1022.76 1022.64 1022.59 1022.60 1022.66 1022.72 1022.76 1022.74 1022.65 1022.46 1022.19 1021.85 1021.45 1021.03 1020.62 1020.25 1019.94 1019.70 1019.52 1019.40 1019.33 1019.28 1019.23 1019.18 1019.12 1019.04 1018.96 1018.87 1018.79 1018.72 1018.66 1018.60 1018.54 1018.46 1018.34 1018.19 1017.99
1024.11 1023.80 1023.44 1023.07 1022.72 1022.42 1022.18 1022.03 1021.97 1022.00 1022.09 1022.22 1022.35 1022.46 1022.50 1022.46 1022.33 1022.09 1021.78 1021.40 1021.00 1020.60 1020.24 1019.93 1019.69 1019.52 1019.41 1019.34 1019.30 1019.28 1019.26 1019.24 1019.21 1019.18 1019.16 1019.14 1019.13 1019.12 1019.10 1019.06 1018.99 1018.87 1018.70 1018.46
1023.18 1022.84 1022.49 1022.14 1021.83 1021.58 1021.41 1021.33 1021.34 1021.43 1021.59 1021.78 1021.97 1022.13 1022.22 1022.23 1022.14 1021.96 1021.69 1021.35 1020.98 1020.61 1020.26 1019.96 1019.72 1019.53 1019.41 1019.34 1019.30 1019.29 1019.30 1019.31 1019.33 1019.36 1019.40 1019.45 1019.49 1019.53 1019.55 1019.53 1019.46 1019.33 1019.13 1018.86
1022.08 1021.76 1021.45 1021.17 1020.93 1020.77 1020.69 1020.69 1020.77 1020.93 1021.14 1021.37 1021.60 1021.80 1021.93 1021.99 1021.95 1021.81 1021.60 1021.31 1020.99 1020.65 1020.32 1020.03 1019.78 1019.59 1019.45 1019.36 1019.32 1019.31 1019.33 1019.37 1019.44 1019.52 1019.62 1019.72 1019.82 1019.90 1019.94 1019.94 1019.87 1019.72 1019.50 1019.21
1020.91 1020.64 1020.41 1020.22 1020.10 1020.05 1020.06 1020.15 1020.31 1020.52 1020.77 1021.04 1021.29 1021.51 1021.67 1021.76 1021.77 1021.69 1021.53 1021.30 1021.03 1020.73 1020.44 1020.15 1019.90 1019.70 1019.54 1019.43 1019.37 1019.35 1019.38 1019.44 1019.54 1019.67 1019.81 1019.96 1020.10 1020.21 1020.27 1020.28 1020.21 1020.05 1019.82 1019.52
1019.75 1019.56 1019.43 1019.37 1019.37 1019.44 1019.57 1019.75 1019.98 1020.24 1020.52 1020.80 1021.06 1021.29 1021.46 1021.58 1021.62 1021.59 1021.48 1021.32 1021.10 1020.85 1020.58 1020.31 1020.06 1019.84 1019.66 1019.53 1019.45 1019.42 1019.45 1019.53 1019.65 1019.80 1019.98 1020.17 1020.33 1020.46 1020.54 1020.55 1020.48 1020.33 1020.09 1019.80
1018.66 1018.56 1018.54 1018.61 1018.75 1018.95 1019.19 1019.47 1019.77 1020.07 1020.36 1020.65 1020.90 1021.13 1021.31 1021.44 1021.50 1021.51 1021.45 1021.34 1021.17 1020.96 1020.73 1020.47 1020.23 1020.00 1019.80 1019.64 1019.54 1019.50 1019.52 1019.61 1019.74 1019.92 1020.12 1020.32 1020.51 1020.65 1020.74 1020.75 1020.69 1020.54 1020.33 1020.05
1017.65 1017.64 1017.75 1017.95 1018.22 1018.55 1018.90 1019.26 1019.62 1019.96 1020.26 1020.55 1020.79 1021.01 1021.18 1021.31 1021.39 1021.43 1021.41 1021.34 1021.21 1021.04 1020.83 1020.60 1020.36 1020.12 1019.91 1019.74 1019.62 1019.57 1019.58 1019.66 1019.80 1019.98 1020.20 1020.41 1020.60 1020.76 1020.85 1020.87 1020.82 1020.70 1020.51 1020.28
1016.73 1016.81 1017.02 1017.34 1017.74 1018.18 1018.64 1019.07 1019.48 1019.84 1020.16 1020.44 1020.67 1020.87 1021.03 1021.16 1021.25 1021.31 1021.32 1021.28 1021.20 1021.06 1020.88 1020.66 1020.43 1020.19 1019.97 1019.79 1019.66 1019.59 1019.60 1019.67 1019.81 1019.99 1020.20 1020.41 1020.61 1020.77 1020.87 1020.90 1020.87 1020.78 1020.63 1020.46
1015.88 1016.04 1016.35 1016.78 1017.28 1017.81 1018.34 1018.84 1019.29 1019.67 1020.00 1020.27 1020.49 1020.67 1020.82 1020.95 1021.05 1021.13 1021.16 1021.16 1021.10 1020.99 1020.84 1020.64 1020.42 1020.19 1019.97 1019.78 1019.64 1019.56 1019.55 1019.62 1019.74 1019.92 1020.12 1020.33 1020.53 1020.69 1020.79 1020.85 1020.84 1020.79 1020.70 1020.59
1015.11 1015.34 1015.72 1016.23 1016.80 1017.40 1017.98 1018.52 1018.99 1019.39 1019.72 1019.99 1020.20 1020.38 1020.53 1020.66 1020.78 1020.86 1020.93 1020.95 1020.93 1020.85 1020.73 1020.56 1020.35 1020.13 1019.91 1019.72 1019.57 1019.48 1019.46 1019.51 1019.62 1019.78 1019.97 1020.17 1020.36 1020.52 1020.64 1020.71 1020.73 1020.72 1020.68 1020.64
1014.45 1014.73 1015.16 1015.70 1016.31 1016.94 1017.55 1018.10 1018.58 1018.99 1019.32 1019.58 1019.80 1019.98 1020.14 1020.29 1020.42 1020.54 1020.63 1020.69 1020.70 1020.66 1020.57 1020.42 1020.24 1020.03 1019.82 1019.63 1019.48 1019.38 1019.34 1019.37 1019.45 1019.59 1019.76 1019.94 1020.12 1020.28 1020.40 1020.49 1020.54 1020.58 1020.59 1020.61
1013.96 1014.25 1014.70 1015.24 1015.85 1016.47 1017.06 1017.60 1018.07 1018.47 1018.80 1019.06 1019.29 1019.48 1019.66 1019.84 1020.00 1020.16 1020.29 1020.39 1020.44 1020.44 1020.38 1020.27 1020.11 1019.93 1019.73 1019.54 1019.38 1019.26 1019.20 1019.20 1019.26 1019.36 1019.50 1019.66 1019.82 1019.97 1020.09 1020.20 1020.28 1020.35 1020.41 1020.47
1013.69 1013.97 1014.38 1014.89 1015.45 1016.02 1016.57 1017.07 1017.51 1017.88 1018.20 1018.47 1018.70 1018.92 1019.13 1019.34 1019.54 1019.74 1019.92 1020.07 1020.17 1020.21 1020.19 1020.12 1019.99 1019.83 1019.64 1019.45 1019.28 1019.15 1019.06 1019.02 1019.04 1019.10 1019.20 1019.33 1019.46 1019.60 1019.72 1019.84 1019.94 1020.04 1020.14 1020.24
1013.68 1013.91 1014.26 1014.68 1015.16 1015.64 1016.11 1016.54 1016.93 1017.26 1017.56 1017.83 1018.07 1018.32 1018.56 1018.81 1019.06 1019.30 1019.53 1019.73 1019.88 1019.97 1019.99 1019.96 1019.86 1019.72 1019.55 1019.36 1019.18 1019.03 1018.91 1018.83 1018.80 1018.82 1018.87 1018.95 1019.05 1019.17 1019.28 1019.40 1019.52 1019.64 1019.76 1019.90
1013.93 1014.08 1014.33 1014.64 1014.99 1015.36 1015.72 1016.07 1016.38 1016.67 1016.93 1017.19 1017.44 1017.70 1017.97 1018.25 1018.54 1018.83 1019.10 1019.35 1019.54 1019.68 1019.75 1019.75 1019.69 1019.57 1019.42 1019.24 1019.05 1018.87 1018.72 1018.61 1018.53 1018.49 1018.49 1018.53 1018.59 1018.67 1018.77 1018.88 1019.01 1019.14 1019.29 1019.46
1014.40 1014.45 1014.57 1014.75 1014.97 1015.20 1015.44 1015.68 1015.90 1016.13 1016.35 1016.58 1016.82 1017.08 1017.36 1017.67 1017.99 1018.31 1018.61 1018.89 1019.12 1019.30 1019.41 1019.45 1019.42 1019.33 1019.20 1019.03 1018.84 1018.65 1018.48 1018.32 1018.20 1018.11 1018.07 1018.05 1018.07 1018.12 1018.20 1018.30 1018.42 1018.56 1018.73 1018.91
1014.99 1014.93 1014.93 1014.97 1015.05 1015.15 1015.26 1015.39 1015.52 1015.67 1015.83 1016.02 1016.24 1016.48 1016.76 1017.07 1017.39 1017.72 1018.04 1018.34 1018.59 1018.79 1018.93 1019.00 1019.01 1018.95 1018.85 1018.70 1018.52 1018.33 1018.14 1017.97 1017.81 1017.69 1017.59 1017.54 1017.51 1017.53 1017.58 1017.66 1017.77 1017.91 1018.09 1018.28
1015.62 1015.46 1015.35 1015.27 1015.22 1015.19 1015.19 1015.21 1015.25 1015.32 1015.41 1015.54 1015.71 1015.92 1016.17 1016.45 1016.75 1017.06 1017.38 1017.67 1017.92 1018.14 1018.30 1018.40 1018.44 1018.42 1018.34 1018.22 1018.07 1017.90 1017.72 1017.54 1017.37 1017.22 1017.09 1017.00 1016.94 1016.92 1016.94 1016.99 1017.09 1017.22 1017.39 1017.60
1016.18 1015.95 1015.75 1015.57 1015.42 1015.30 1015.20 1015.13 1015.08 1015.07 1015.10 1015.16 1015.27 1015.42 1015.62 1015.84 1016.09 1016.37 1016.64 1016.90 1017.14 1017.35 1017.52 1017.64 1017.71 1017.73 1017.70 1017.62 1017.51 1017.37 1017.21 1017.05 1016.88 1016.72 1016.58 1016.47 1016.38 1016.33 1016.32 1016.35 1016.42 1016.54 1016.70 1016.90
1016.56 1016.30 1016.06 1015.83 1015.62 1015.43 1015.27 1015.12 1015.01 1014.93 1014.89 1014.89 1014.93 1015.00 1015.12 1015.28 1015.46 1015.66 1015.88 1016.09 1016.30 1016.49 1016.66 1016.79 1016.88 1016.93 1016.94 1016.92 1016.86 1016.77 1016.65 1016.52 1016.38 1016.23 1016.09 1015.97 1015.86 1015.79 1015.75 1015.75 1015.79 1015.88 1016.02 1016.21
Thickness
5653 5653 5646 5639 5635 5631 5622 5614 5604 5607 5607 5612 5616 5616 5617 5619 5621 5623 5625 5628 5630 5630 5630 5631 5633 5635 5637 5640 5643 5645 5647 5648 5649 5651 5652 5652 5652 5652 5652 5651 5649 5648 5647 5647
5656 5656 5650 5643 5640 5637 5633 5628 5623 5621 5620 5628 5628 5626 5624 5624 5625 5626 5628 5630 5633 5634 5635 5634 5635 5636 5638 5640 5642 5644 5644 5645 5646 5647 5648 5647 5647 5646 5644 5643 5642 5640 5639 5639
5649 5657 5650 5639 5646 5643 5640 5640 5635 5627 5631 5636 5632 5632 5631 5630 5630 5630 5632 5633 5635 5637 5638 5638 5638 5639 5639 5640 5642 5643 5643 5643 5643 5643 5643 5642 5642 5640 5638 5636 5635 5633 5632 5631
5652 5651 5639 5655 5666 5660 5651 5649 5648 5646 5646 5643 5641 5641 5640 5639 5636 5635 5636 5637 5639 5641 5642 5643 5643 5643 5643 5643 5643 5642 5642 5642 5642 5641 5639 5638 5636 5634 5632 5630 5627 5625 5623 5622
5653 5648 5653 5661 5668 5665 5655 5651 5659 5656 5655 5652 5648 5643 5639 5645 5644 5643 5642 5642 5643 5645 5646 5647 5647 5647 5646 5645 5644 5644 5642 5641 5640 5639 5636 5634 5632 5629 5626 5624 5621 5618 5614 5612
5661 5658 5654 5672 5681 5680 5667 5653 5666 5664 5659 5655 5648 5633 5635 5648 5650 5649 5649 5648 5648 5649 5650 5650 5651 5651 5649 5647 5646 5645 5644 5642 5640 5638 5634 5631 5628 5626 5623 5620 5615 5612 5607 5604
5667 5666 5674 5691 5691 5681 5653 5660 5674 5671 5665 5659 5650 5645 5649 5655 5655 5654 5653 5654 5654 5653 5652 5653 5654 5653 5651 5649 5648 5648 5647 5644 5640 5637 5633 5629 5626 5623 5619 5615 5610 5605 5601 5598
5669 5669 5678 5699 5691 5679 5678 5685 5682 5676 5671 5667 5662 5662 5660 5660 5658 5657 5656 5657 5657 5655 5655 5657 5658 5657 5654 5652 5653 5652 5649 5645 5640 5636 5633 5628 5624 5619 5615 5611 5606 5601 5597 5594
5689 5692 5707 5707 5705 5703 5697 5689 5685 5681 5678 5674 5670 5666 5665 5663 5660 5659 5659 5658 5657 5656 5656 5659 5660 5659 5656 5656 5657 5655 5650 5645 5640 5636 5631 5627 5622 5618 5613 5609 5604 5600 5596 5592
5702 5707 5714 5713 5714 5710 5705 5698 5693 5689 5685 5680 5673 5671 5667 5663 5661 5660 5659 5658 5658 5658 5657 5658 5660 5661 5660 5660 5659 5657 5651 5646 5640 5635 5630 5626 5621 5617 5613 5608 5604 5601 5597 5593
5706 5713 5714 5714 5714 5713 5709 5704 5699 5694 5690 5684 5678 5674 5669 5664 5663 5662 5661 5659 5659 5658 5658 5659 5661 5661 5662 5662 5661 5657 5652 5647 5641 5636 5631 5626 5621 5616 5613 5610 5606 5602 5598 5594
5711 5719 5714 5716 5719 5717 5710 5706 5702 5696 5691 5688 5683 5677 5673 5667 5666 5664 5662 5661 5660 5660 5660 5661 5662 5662 5663 5663 5662 5658 5653 5647 5642 5637 5632 5627 5623 5618 5615 5612 5610 5606 5602 5598
5736 5735 5729 5729 5724 5720 5715 5709 5705 5700 5695 5690 5686 5682 5677 5671 5668 5665 5663 5662 5662 5661 5662 5662 5663 5663 5664 5665 5664 5660 5655 5650 5645 5640 5635 5630 5626 5622 5618 5615 5613 5610 5606 5603
5743 5738 5732 5728 5724 5722 5717 5713 5708 5702 5698 5693 5688 5684 5679 5674 5670 5667 5664 5663 5664 5664 5664 5664 5664 5664 5665 5666 5665 5662 5657 5654 5649 5644 5640 5636 5631 5627 5622 5619 5615 5611 5609 5606
5741 5740 5735 5732 5727 5722 5718 5712 5705 5700 5697 5693 5689 5685 5680 5675 5671 5669 5667 5666 5665 5664 5664 5664 5664 5665 5667 5668 5667 5664 5660 5655 5652 5648 5644 5639 5635 5630 5626 5622 5617 5613 5611 5609
5737 5736 5732 5728 5724 5720 5716 5711 5705 5700 5697 5694 5689 5686 5683 5679 5675 5672 5669 5667 5665 5663 5663 5664 5664 5666 5667 5668 5668 5665 5662 5660 5656 5651 5647 5642 5638 5633 5628 5624 5620 5616 5613 5610
5729 5727 5725 5723 5722 5719 5717 5713 5708 5703 5699 5695 5691 5688 5684 5680 5677 5673 5671 5669 5667 5665 5665 5665 5665 5667 5669 5669 5668 5667 5664 5662 5660 5655 5650 5646 5642 5637 5633 5628 5624 5620 5617 5614
5741 5738 5733 5729 5725 5720 5716 5713 5710 5705 5700 5697 5694 5689 5684 5680 5677 5674 5672 5670 5668 5667 5666 5666 5666 5668 5669 5668 5668 5667 5666 5664 5661 5657 5654 5650 5646 5642 5638 5633 5629 5626 5622 5619
5737 5734 5731 5728 5726 5722 5717 5713 5710 5707 5703 5699 5693 5688 5685 5682 5679 5676 5673 5670 5668 5666 5666 5666 5667 5667 5668 5667 5667 5666 5667 5666 5664 5661 5657 5654 5650 5647 5642 5638 5635 5631 5627 5623
5732 5730 5728 5726 5724 5721 5717 5714 5711 5707 5703 5698 5693 5688 5684 5682 5680 5677 5673 5670 5668 5668 5668 5668 5667 5667 5667 5666 5667 5666 5666 5666 5665 5663 5660 5656 5654 5651 5647 5644 5641 5637 5633 5629
5725 5724 5722 5720 5719 5718 5717 5714 5710 5706 5702 5698 5693 5688 5684 5682 5679 5676 5672 5669 5671 5671 5669 5669 5668 5667 5666 5666 5666 5666 5666 5666 5666 5665 5663 5660 5658 5655 5652 5649 5646 5643 5640 5636
5713 5714 5716 5714 5713 5712 5712 5711 5708 5705 5700 5696 5693 5688 5683 5679 5677 5674 5673 5672 5673 5672 5669 5667 5667 5667 5666 5666 5665 5665 5666 5667 5667 5667 5665 5664 5662 5660 5657 5654 5651 5648 5645 5642
5696 5700 5702 5703 5704 5704 5704 5703 5703 5701 5697 5694 5690 5686 5682 5679 5675 5672 5669 5672 5672 5672 5669 5667 5667 5667 5667 5665 5664 5665 5666 5667 5668 5669 5669 5668 5667 5665 5663 5660 5657 5654 5650 5647
5680 5683 5686 5689 5691 5691 5691 5693 5693 5694 5694 5692 5689 5686 5682 5677 5672 5672 5673 5673 5672 5671 5668 5667 5666 5666 5666 5664 5663 5664 5666 5667 5669 5670 5671 5671 5670 5668 5667 5664 5661 5658 5655 5651
5661 5665 5668 5671 5672 5674 5677 5680 5682 5682 5682 5682 5681 5680 5679 5678 5675 5673 5670 5668 5668 5667 5665 5665 5665 5664 5663 5661 5661 5662 5664 5666 5668 5670 5671 5671 5671 5670 5668 5667 5665 5662 5659 5655
5640 5643 5647 5651 5654 5658 5662 5665 5667 5669 5670 5670 5671 5672 5671 5671 5671 5669 5666 5665 5664 5663 5661 5660 5660 5660 5659 5659 5659 5660 5661 5663 5665 5667 5668 5669 5670 5669 5668 5667 5665 5663 5661 5658
5619 5624 5629 5633 5637 5641 5645 5649 5652 5655 5657 5659 5661 5663 5664 5664 5663 5661 5660 5659 5658 5657 5656 5656 5655 5655 5655 5655 5656 5657 5658 5659 5661 5662 5664 5665 5666 5666 5665 5665 5664 5663 5661 5659